sat.trackr.live / text

‹ back to catalog

COSMOS 2391

NORAD 27465 · 2002-036B

PAYLOAD ACTIVE UNKNOWN

§ Identity

Operator
Country
CIS
Launch date
2002-07-08
Launch site
PLMSC
Launch vehicle
Mass (kg)
RCS (m²)
0.88

External: N2YO · Heavens-Above · Gunter

§ Orbital elements

Epoch: 2026-09-19T23:14:26.526048Z

Period
115.67 min
Inclination
82.4792°
Eccentricity
0.0027244
Mean motion
12.44947975 rev/d
Perigee alt
1,464.3 km
Apogee alt
1,507.1 km
Semi-major
7,863.8 km
B*
-6.6106e-5
RAAN
282.1821°
Arg perigee
46.9687°
Mean anomaly
313.3669°
Rev number
9,964

§ Raw data

COSMOS 23911 27465U 02036B   26262.96836257  .00000001  00000+0 -66106-4 0  99932 27465  82.4792 282.1821 0027244  46.9687 313.3669 12.44947975 99642

JSON: /api/v1/satellites/27465 · /tle

For live sub-satellite position, see the globe view (requires WebGL).

§ Visibility from observer

Set your observer location to see the next 7 days of passes ≥ 10°. The values pass through the URL so the page stays shareable.

No JS? Fill the form by hand. The geolocation button needs JavaScript.